Location: La Brionne
(46.1728°N, 1.7849°E)
Time: 08:37:54
(UTC+00:00)

Meteor 2-20 - Pass Details

Date: 16 June 2021
Orbit: 939 x 958 km, 82.5° (Epoch: 02 August)

Event Time Altitude Azimuth Distance (km) Brightness Sun altitude
Rises 20:40:11 0° 184° (S) 3,609 7.1 -7.8°
Reaches altitude 10° 20:42:40 10° 183° (S) 2,665 6.4 -8.1°
Maximum altitude 20:48:46 82° 97° (E) 960 4.4 -8.8°
Drops below altitude 10° 20:54:53 10° 11° (N) 2,671 7.4 -9.5°
Sets 20:57:22 0° 10° (N) 3,618 8.1 -9.8°
